QPF
0.03 0.02 0.02 0.01 0.01 0.01 0.02 0.02 0.01 0.02 0.02 0.02 0.02 0.02 0.02 0.02 0.04 0.05 0.06 0.06 0.05 0.05 0.05 0.05 0.04 0.03 0.02 0.02 0.02 0.02 0.03 0.04 0.05 0.04 0.04 0.05 0.06 0.05 0.06 0.08 0.06 0.05 0.04
0.02 0.01 0.01 0.00 0.00 0.00 0.00 0.00 0.01 0.01 0.01 0.01 0.01 0.01 0.02 0.02 0.03 0.04 0.05 0.06 0.06 0.06 0.05 0.05 0.05 0.03 0.02 0.02 0.02 0.01 0.02 0.02 0.04 0.06 0.07 0.06 0.04 0.04 0.05 0.06 0.07 0.06 0.04
0.01 0.01 0.01 0.01 0.01 0.00 0.00 0.00 0.01 0.01 0.01 0.01 0.01 0.01 0.01 0.01 0.02 0.03 0.03 0.03 0.03 0.04 0.04 0.04 0.05 0.04 0.03 0.03 0.02 0.02 0.02 0.03 0.04 0.05 0.04 0.04 0.03 0.03 0.04 0.05 0.07 0.08 0.06
0.01 0.01 0.02 0.01 0.01 0.01 0.01 0.01 0.01 0.01 0.01 0.01 0.01 0.01 0.02 0.02 0.02 0.03 0.02 0.01 0.02 0.03 0.04 0.05 0.06 0.06 0.06 0.05 0.03 0.02 0.02 0.03 0.03 0.04 0.04 0.04 0.03 0.03 0.04 0.06 0.07 0.08 0.07
0.01 0.01 0.01 0.01 0.01 0.01 0.01 0.01 0.01 0.02 0.02 0.02 0.02 0.02 0.02 0.02 0.02 0.02 0.01 0.02 0.02 0.03 0.04 0.04 0.05 0.06 0.06 0.06 0.03 0.02 0.02 0.03 0.03 0.03 0.04 0.04 0.03 0.03 0.04 0.06 0.07 0.08 0.07
0.01 0.01 0.01 0.01 0.01 0.01 0.01 0.02 0.02 0.02 0.02 0.02 0.03 0.03 0.02 0.02 0.01 0.01 0.01 0.01 0.01 0.01 0.02 0.02 0.03 0.04 0.04 0.04 0.04 0.03 0.03 0.03 0.03 0.03 0.03 0.03 0.03 0.03 0.04 0.06 0.07 0.07 0.07
0.01 0.01 0.01 0.01 0.01 0.01 0.01 0.02 0.02 0.02 0.02 0.01 0.02 0.01 0.01 0.01 0.01 0.01 0.01 0.01 0.01 0.01 0.01 0.01 0.02 0.03 0.04 0.03 0.03 0.02 0.02 0.03 0.03 0.03 0.03 0.04 0.05 0.05 0.06 0.07 0.07 0.06 0.06
0.01 0.01 0.01 0.01 0.01 0.02 0.02 0.02 0.02 0.02 0.02 0.02 0.02 0.01 0.01 0.01 0.01 0.01 0.01 0.01 0.01 0.01 0.01 0.02 0.02 0.03 0.03 0.04 0.03 0.03 0.02 0.02 0.02 0.02 0.02 0.02 0.04 0.05 0.05 0.06 0.07 0.07 0.07
0.01 0.01 0.01 0.02 0.02 0.02 0.02 0.02 0.02 0.02 0.02 0.02 0.02 0.01 0.01 0.01 0.01 0.01 0.01 0.01 0.02 0.02 0.01 0.01 0.01 0.01 0.01 0.02 0.01 0.01 0.01 0.02 0.02 0.01 0.02 0.02 0.03 0.03 0.04 0.04 0.05 0.07 0.06
0.01 0.02 0.03 0.03 0.02 0.02 0.02 0.02 0.02 0.02 0.02 0.01 0.01 0.01 0.01 0.01 0.01 0.01 0.01 0.01 0.01 0.01 0.01 0.01 0.00 0.00 0.00 0.01 0.01 0.01 0.01 0.01 0.01 0.01 0.01 0.02 0.02 0.03 0.04 0.04 0.05 0.06 0.06
0.02 0.02 0.03 0.05 0.04 0.04 0.03 0.02 0.02 0.02 0.02 0.02 0.02 0.02 0.02 0.01 0.01 0.01 0.01 0.01 0.01 0.00 0.01 0.02 0.01 0.00 0.00 0.01 0.01 0.01 0.01 0.01 0.01 0.01 0.01 0.01 0.02 0.02 0.03 0.03 0.04 0.05 0.06
0.03 0.02 0.02 0.03 0.04 0.05 0.04 0.03 0.03 0.02 0.02 0.02 0.02 0.02 0.02 0.01 0.01 0.01 0.00 0.00 0.00 0.01 0.00 0.01 0.02 0.01 0.00 0.00 0.00 0.00 0.00 0.00 0.00 0.00 0.00 0.00 0.01 0.03 0.04 0.04 0.04 0.04 0.05
0.04 0.02 0.02 0.02 0.03 0.05 0.05 0.04 0.03 0.03 0.02 0.02 0.02 0.01 0.01 0.01 0.01 0.01 0.00 0.00 0.00 0.00 0.01 0.01 0.01 0.02 0.01 0.01 0.01 0.01 0.01 0.00 0.00 0.00 0.00 0.00 0.01 0.02 0.04 0.05 0.06 0.06 0.06
0.02 0.02 0.01 0.02 0.02 0.03 0.03 0.02 0.02 0.02 0.01 0.01 0.01 0.01 0.00 0.00 0.01 0.01 0.01 0.01 0.01 0.01 0.01 0.01 0.01 0.02 0.02 0.01 0.01 0.01 0.00 0.00 0.00 0.01 0.01 0.01 0.00 0.01 0.01 0.03 0.05 0.05 0.06
0.01 0.01 0.01 0.00 0.00 0.01 0.01 0.01 0.01 0.01 0.01 0.00 0.00 0.00 0.00 0.00 0.01 0.01 0.01 0.02 0.02 0.01 0.02 0.02 0.02 0.03 0.02 0.02 0.01 0.01 0.01 0.01 0.01 0.01 0.02 0.02 0.01 0.01 0.01 0.01 0.02 0.03 0.03
0.01 0.01 0.01 0.01 0.00 0.00 0.00 0.01 0.00 0.00 0.00 0.00 0.00 0.00 0.00 0.00 0.00 0.01 0.01 0.02 0.01 0.01 0.02 0.03 0.04 0.04 0.03 0.02 0.01 0.02 0.02 0.01 0.01 0.02 0.02 0.02 0.02 0.01 0.01 0.02 0.02 0.02 0.03
0.02 0.01 0.01 0.01 0.01 0.01 0.01 0.01 0.01 0.00 0.00 0.00 0.00 0.00 0.00 0.00 0.00 0.00 0.01 0.01 0.01 0.01 0.02 0.02 0.02 0.02 0.02 0.02 0.02 0.02 0.02 0.01 0.01 0.02 0.02 0.02 0.01 0.01 0.02 0.02 0.03 0.03 0.04
0.01 0.02 0.02 0.01 0.01 0.01 0.01 0.01 0.01 0.01 0.00 0.00 0.00 0.00 0.00 0.00 0.00 0.01 0.01 0.00 0.01 0.01 0.01 0.01 0.01 0.02 0.02 0.02 0.02 0.02 0.03 0.03 0.02 0.03 0.03 0.03 0.02 0.02 0.03 0.03 0.03 0.04 0.04
0.01 0.02 0.02 0.02 0.02 0.01 0.01 0.01 0.01 0.01 0.00 0.00 0.00 0.00 0.00 0.00 0.00 0.00 0.00 0.00 0.00 0.00 0.01 0.00 0.00 0.01 0.02 0.02 0.02 0.02 0.03 0.04 0.05 0.04 0.03 0.03 0.03 0.03 0.02 0.02 0.02 0.02 0.03
0.01 0.01 0.02 0.02 0.02 0.01 0.01 0.01 0.01 0.01 0.01 0.01 0.01 0.01 0.01 0.00 0.00 0.00 0.00 0.00 0.00 0.00 0.00 0.00 0.00 0.01 0.01 0.01 0.01 0.02 0.02 0.02 0.03 0.03 0.02 0.02 0.03 0.04 0.03 0.02 0.03 0.02 0.02
0.01 0.01 0.01 0.02 0.01 0.01 0.01 0.01 0.00 0.00 0.01 0.01 0.01 0.02 0.01 0.01 0.00 0.00 0.00 0.00 0.00 0.00 0.00 0.00 0.01 0.01 0.01 0.01 0.01 0.02 0.02 0.02 0.02 0.02 0.02 0.03 0.03 0.03 0.02 0.02 0.02 0.02 0.02
0.01 0.00 0.01 0.01 0.01 0.01 0.01 0.01 0.00 0.01 0.01 0.01 0.01 0.01 0.01 0.00 0.00 0.00 0.00 0.00 0.00 0.01 0.01 0.01 0.01 0.01 0.01 0.01 0.02 0.02 0.02 0.01 0.01 0.02 0.02 0.02 0.02 0.02 0.02 0.02 0.02 0.02 0.02
0.00 0.00 0.01 0.01 0.01 0.01 0.00 0.00 0.01 0.01 0.01 0.01 0.01 0.00 0.00 0.00 0.00 0.00 0.00 0.01 0.01 0.01 0.01 0.01 0.01 0.01 0.01 0.01 0.01 0.02 0.03 0.03 0.03 0.02 0.02 0.02 0.02 0.02 0.02 0.02 0.02 0.02 0.03
0.01 0.01 0.01 0.01 0.01 0.01 0.00 0.00 0.01 0.01 0.01 0.01 0.00 0.00 0.00 0.00 0.00 0.00 0.00 0.00 0.01 0.01 0.01 0.01 0.01 0.01 0.01 0.01 0.01 0.02 0.02 0.02 0.02 0.01 0.01 0.01 0.01 0.01 0.01 0.01 0.02 0.02 0.02
0.01 0.01 0.01 0.00 0.00 0.00 0.00 0.00 0.00 0.00 0.01 0.00 0.00 0.00 0.00 0.00 0.00 0.00 0.00 0.00 0.01 0.01 0.01 0.01 0.01 0.01 0.01 0.01 0.01 0.01 0.01 0.01 0.01 0.01 0.01 0.01 0.01 0.02 0.02 0.02 0.01 0.01 0.01
0.00 0.00 0.00 0.00 0.00 0.00 0.00 0.00 0.00 0.00 0.00 0.00 0.00 0.00 0.00 0.00 0.00 0.00 0.00 0.01 0.01 0.01 0.01 0.01 0.01 0.01 0.00 0.00 0.00 0.01 0.01 0.01 0.01 0.01 0.01 0.01 0.01 0.02 0.02 0.02 0.02 0.01 0.01
MSLP
1012.97 1013.27 1013.58 1013.86 1014.07 1014.20 1014.24 1014.22 1014.15 1014.07 1013.98 1013.91 1013.87 1013.84 1013.82 1013.80 1013.78 1013.75 1013.73 1013.72 1013.74 1013.79 1013.86 1013.95 1014.03 1014.09 1014.11 1014.09 1014.02 1013.91 1013.74 1013.51 1013.22 1012.84 1012.34 1011.70 1010.90 1009.95 1008.86 1007.69 1006.52 1005.45 1004.57
1013.42 1013.68 1013.93 1014.15 1014.31 1014.40 1014.41 1014.36 1014.27 1014.16 1014.06 1013.97 1013.91 1013.87 1013.84 1013.81 1013.78 1013.75 1013.72 1013.70 1013.70 1013.71 1013.74 1013.78 1013.82 1013.84 1013.84 1013.81 1013.74 1013.64 1013.50 1013.31 1013.06 1012.73 1012.29 1011.70 1010.94 1010.03 1008.97 1007.82 1006.66 1005.57 1004.66
1013.76 1013.98 1014.19 1014.36 1014.47 1014.51 1014.48 1014.40 1014.28 1014.16 1014.04 1013.94 1013.87 1013.82 1013.79 1013.76 1013.73 1013.70 1013.66 1013.63 1013.61 1013.60 1013.60 1013.60 1013.60 1013.59 1013.56 1013.51 1013.43 1013.34 1013.23 1013.08 1012.89 1012.62 1012.25 1011.74 1011.07 1010.24 1009.27 1008.19 1007.07 1006.01 1005.09
1013.97 1014.16 1014.34 1014.47 1014.54 1014.55 1014.49 1014.38 1014.25 1014.11 1013.98 1013.87 1013.80 1013.75 1013.71 1013.68 1013.65 1013.61 1013.57 1013.53 1013.49 1013.46 1013.43 1013.40 1013.36 1013.32 1013.26 1013.19 1013.10 1013.01 1012.92 1012.80 1012.66 1012.46 1012.17 1011.76 1011.21 1010.50 1009.65 1008.68 1007.66 1006.65 1005.75
1014.04 1014.23 1014.39 1014.50 1014.54 1014.53 1014.45 1014.33 1014.19 1014.05 1013.92 1013.82 1013.74 1013.68 1013.64 1013.59 1013.55 1013.50 1013.45 1013.40 1013.34 1013.29 1013.24 1013.18 1013.11 1013.04 1012.95 1012.85 1012.75 1012.64 1012.54 1012.45 1012.34 1012.19 1011.99 1011.69 1011.26 1010.69 1009.99 1009.16 1008.25 1007.33 1006.46
1014.04 1014.23 1014.38 1014.48 1014.51 1014.48 1014.41 1014.29 1014.16 1014.03 1013.90 1013.80 1013.71 1013.64 1013.58 1013.52 1013.46 1013.39 1013.32 1013.25 1013.18 1013.10 1013.03 1012.95 1012.86 1012.75 1012.63 1012.50 1012.36 1012.23 1012.11 1012.01 1011.91 1011.81 1011.67 1011.47 1011.17 1010.75 1010.19 1009.51 1008.74 1007.91 1007.08
1014.02 1014.21 1014.36 1014.45 1014.48 1014.45 1014.38 1014.28 1014.16 1014.04 1013.92 1013.82 1013.72 1013.63 1013.55 1013.46 1013.37 1013.27 1013.17 1013.08 1012.99 1012.90 1012.81 1012.71 1012.60 1012.46 1012.30 1012.13 1011.94 1011.77 1011.61 1011.48 1011.38 1011.29 1011.20 1011.08 1010.89 1010.60 1010.19 1009.66 1009.01 1008.28 1007.50
1014.05 1014.23 1014.37 1014.45 1014.48 1014.45 1014.39 1014.30 1014.19 1014.08 1013.97 1013.86 1013.75 1013.63 1013.51 1013.39 1013.26 1013.13 1013.01 1012.89 1012.78 1012.68 1012.58 1012.46 1012.33 1012.16 1011.96 1011.73 1011.50 1011.26 1011.05 1010.88 1010.75 1010.66 1010.59 1010.53 1010.42 1010.25 1009.96 1009.56 1009.03 1008.38 1007.66
1014.18 1014.34 1014.45 1014.51 1014.52 1014.49 1014.43 1014.34 1014.24 1014.13 1014.02 1013.89 1013.76 1013.61 1013.46 1013.29 1013.12 1012.96 1012.81 1012.67 1012.54 1012.43 1012.32 1012.19 1012.03 1011.83 1011.59 1011.31 1011.01 1010.71 1010.44 1010.20 1010.03 1009.92 1009.86 1009.83 1009.79 1009.70 1009.52 1009.22 1008.79 1008.23 1007.56
1014.40 1014.52 1014.59 1014.61 1014.60 1014.55 1014.48 1014.39 1014.29 1014.17 1014.04 1013.90 1013.73 1013.55 1013.35 1013.14 1012.94 1012.74 1012.56 1012.41 1012.27 1012.14 1012.02 1011.87 1011.68 1011.45 1011.17 1010.84 1010.47 1010.11 1009.77 1009.48 1009.26 1009.12 1009.05 1009.04 1009.03 1009.00 1008.90 1008.69 1008.35 1007.86 1007.25
1014.68 1014.75 1014.76 1014.74 1014.69 1014.62 1014.53 1014.42 1014.30 1014.17 1014.01 1013.84 1013.64 1013.42 1013.18 1012.94 1012.69 1012.47 1012.27 1012.09 1011.94 1011.81 1011.66 1011.49 1011.28 1011.01 1010.68 1010.30 1009.88 1009.45 1009.05 1008.71 1008.44 1008.27 1008.19 1008.18 1008.21 1008.22 1008.18 1008.04 1007.77 1007.36 1006.82
1014.97 1014.97 1014.94 1014.87 1014.77 1014.66 1014.54 1014.41 1014.26 1014.10 1013.92 1013.71 1013.47 1013.21 1012.93 1012.65 1012.38 1012.13 1011.91 1011.72 1011.56 1011.40 1011.24 1011.05 1010.80 1010.50 1010.12 1009.69 1009.22 1008.75 1008.30 1007.91 1007.61 1007.41 1007.32 1007.31 1007.35 1007.40 1007.40 1007.33 1007.13 1006.79 1006.32
1015.20 1015.16 1015.07 1014.96 1014.82 1014.67 1014.51 1014.35 1014.17 1013.97 1013.75 1013.50 1013.22 1012.92 1012.61 1012.30 1012.01 1011.74 1011.50 1011.30 1011.11 1010.94 1010.75 1010.53 1010.25 1009.91 1009.50 1009.03 1008.52 1008.01 1007.53 1007.11 1006.79 1006.57 1006.47 1006.46 1006.51 1006.58 1006.63 1006.60 1006.46 1006.21 1005.82
1015.35 1015.27 1015.15 1015.00 1014.82 1014.64 1014.45 1014.24 1014.02 1013.78 1013.52 1013.22 1012.91 1012.57 1012.23 1011.89 1011.57 1011.29 1011.03 1010.81 1010.61 1010.42 1010.21 1009.96 1009.65 1009.28 1008.84 1008.34 1007.81 1007.27 1006.78 1006.35 1006.01 1005.79 1005.68 1005.67 1005.73 1005.82 1005.89 1005.90 1005.82 1005.64 1005.35
1015.40 1015.30 1015.16 1014.99 1014.79 1014.58 1014.35 1014.11 1013.85 1013.56 1013.25 1012.92 1012.56 1012.18 1011.81 1011.45 1011.11 1010.81 1010.54 1010.30 1010.08 1009.86 1009.63 1009.35 1009.02 1008.63 1008.17 1007.66 1007.13 1006.60 1006.10 1005.67 1005.34 1005.11 1005.00 1004.98 1005.03 1005.12 1005.21 1005.25 1005.22 1005.11 1004.90
1015.36 1015.27 1015.12 1014.94 1014.73 1014.50 1014.25 1013.97 1013.67 1013.35 1012.99 1012.61 1012.21 1011.80 1011.40 1011.01 1010.65 1010.33 1010.04 1009.78 1009.55 1009.31 1009.06 1008.77 1008.42 1008.02 1007.56 1007.06 1006.54 1006.02 1005.55 1005.13 1004.80 1004.58 1004.45 1004.42 1004.46 1004.53 1004.61 1004.67 1004.67 1004.61 1004.49
1015.25 1015.18 1015.05 1014.88 1014.67 1014.43 1014.16 1013.86 1013.53 1013.16 1012.77 1012.34 1011.91 1011.46 1011.02 1010.61 1010.23 1009.89 1009.58 1009.30 1009.05 1008.79 1008.52 1008.22 1007.88 1007.49 1007.05 1006.57 1006.08 1005.60 1005.15 1004.76 1004.44 1004.21 1004.07 1004.01 1004.02 1004.06 1004.12 1004.16 1004.18 1004.16 1004.09
1015.10 1015.06 1014.97 1014.82 1014.62 1014.39 1014.11 1013.80 1013.44 1013.04 1012.61 1012.15 1011.68 1011.20 1010.73 1010.29 1009.88 1009.51 1009.18 1008.88 1008.61 1008.33 1008.06 1007.75 1007.42 1007.05 1006.64 1006.21 1005.76 1005.32 1004.92 1004.55 1004.25 1004.02 1003.86 1003.76 1003.72 1003.72 1003.73 1003.75 1003.76 1003.75 1003.73
1014.91 1014.92 1014.86 1014.75 1014.58 1014.36 1014.09 1013.77 1013.40 1012.99 1012.53 1012.05 1011.54 1011.03 1010.54 1010.06 1009.62 1009.22 1008.86 1008.54 1008.23 1007.94 1007.65 1007.36 1007.04 1006.69 1006.33 1005.95 1005.56 1005.18 1004.82 1004.50 1004.21 1003.98 1003.80 1003.66 1003.57 1003.50 1003.46 1003.43 1003.41 1003.40 1003.39
1014.68 1014.74 1014.73 1014.66 1014.53 1014.34 1014.09 1013.78 1013.41 1012.99 1012.52 1012.02 1011.49 1010.96 1010.43 1009.93 1009.46 1009.02 1008.62 1008.26 1007.92 1007.61 1007.31 1007.01 1006.71 1006.39 1006.08 1005.75 1005.43 1005.12 1004.82 1004.53 1004.28 1004.05 1003.85 1003.68 1003.53 1003.41 1003.31 1003.23 1003.16 1003.13 1003.12
1014.40 1014.51 1014.56 1014.54 1014.46 1014.30 1014.08 1013.79 1013.44 1013.02 1012.55 1012.04 1011.50 1010.95 1010.40 1009.86 1009.35 1008.87 1008.43 1008.02 1007.65 1007.31 1006.98 1006.68 1006.39 1006.11 1005.84 1005.57 1005.32 1005.07 1004.83 1004.60 1004.38 1004.17 1003.97 1003.77 1003.59 1003.41 1003.25 1003.12 1003.01 1002.94 1002.91
1014.06 1014.22 1014.33 1014.36 1014.33 1014.21 1014.03 1013.77 1013.43 1013.03 1012.57 1012.06 1011.51 1010.94 1010.37 1009.81 1009.27 1008.75 1008.26 1007.81 1007.39 1007.01 1006.66 1006.34 1006.05 1005.80 1005.56 1005.35 1005.16 1004.98 1004.81 1004.64 1004.47 1004.28 1004.09 1003.89 1003.68 1003.47 1003.27 1003.09 1002.94 1002.83 1002.77
1013.66 1013.87 1014.03 1014.11 1014.12 1014.05 1013.89 1013.66 1013.35 1012.96 1012.51 1012.01 1011.47 1010.90 1010.31 1009.73 1009.15 1008.60 1008.07 1007.57 1007.11 1006.69 1006.31 1005.98 1005.69 1005.44 1005.24 1005.07 1004.94 1004.82 1004.71 1004.60 1004.48 1004.34 1004.18 1003.98 1003.77 1003.55 1003.32 1003.11 1002.92 1002.78 1002.69
1013.22 1013.48 1013.67 1013.79 1013.83 1013.79 1013.66 1013.45 1013.15 1012.78 1012.34 1011.85 1011.31 1010.74 1010.16 1009.56 1008.97 1008.39 1007.83 1007.30 1006.81 1006.36 1005.95 1005.60 1005.31 1005.07 1004.89 1004.75 1004.66 1004.60 1004.54 1004.49 1004.42 1004.32 1004.19 1004.02 1003.82 1003.60 1003.36 1003.13 1002.92 1002.75 1002.62
1012.78 1013.07 1013.28 1013.42 1013.48 1013.44 1013.32 1013.11 1012.82 1012.45 1012.02 1011.53 1011.01 1010.45 1009.87 1009.28 1008.70 1008.12 1007.55 1007.01 1006.50 1006.03 1005.61 1005.25 1004.95 1004.72 1004.55 1004.44 1004.38 1004.35 1004.33 1004.32 1004.29 1004.23 1004.14 1003.99 1003.81 1003.59 1003.35 1003.11 1002.88 1002.69 1002.53
1012.37 1012.66 1012.87 1013.01 1013.05 1013.00 1012.86 1012.64 1012.34 1011.96 1011.53 1011.06 1010.54 1010.01 1009.46 1008.90 1008.34 1007.78 1007.24 1006.71 1006.22 1005.76 1005.34 1004.99 1004.69 1004.46 1004.30 1004.20 1004.15 1004.14 1004.14 1004.15 1004.14 1004.11 1004.03 1003.90 1003.72 1003.51 1003.27 1003.02 1002.78 1002.56 1002.38
Thickness
5647 5644 5641 5637 5634 5631 5628 5625 5622 5619 5616 5614 5612 5610 5608 5606 5603 5601 5599 5597 5595 5594 5592 5591 5590 5590 5590 5589 5589 5589 5589 5589 5590 5593 5594 5595 5596 5598 5600 5601 5603 5604 5606
5642 5639 5635 5632 5629 5626 5622 5619 5616 5613 5611 5609 5607 5605 5603 5601 5598 5596 5594 5592 5590 5588 5587 5585 5585 5585 5584 5584 5584 5584 5584 5584 5584 5585 5587 5588 5589 5591 5592 5594 5596 5597 5599
5638 5633 5629 5626 5623 5620 5617 5614 5611 5608 5606 5604 5602 5600 5598 5596 5593 5591 5588 5586 5584 5583 5582 5581 5580 5580 5579 5579 5579 5579 5579 5579 5578 5578 5579 5580 5581 5583 5585 5587 5589 5590 5592
5633 5629 5624 5621 5617 5615 5612 5610 5607 5604 5602 5600 5598 5596 5594 5591 5589 5586 5584 5582 5580 5579 5578 5577 5576 5576 5575 5575 5575 5574 5574 5573 5573 5572 5573 5574 5575 5576 5577 5580 5582 5584 5586
5629 5624 5621 5617 5613 5611 5609 5606 5603 5601 5599 5597 5595 5592 5590 5588 5585 5582 5580 5579 5577 5576 5575 5574 5573 5573 5572 5571 5572 5570 5569 5568 5568 5568 5568 5569 5571 5571 5573 5574 5576 5577 5580
5625 5621 5618 5614 5611 5609 5606 5603 5601 5598 5596 5594 5592 5589 5587 5585 5582 5580 5577 5575 5574 5572 5571 5571 5571 5570 5570 5569 5568 5567 5566 5564 5565 5565 5566 5566 5568 5568 5569 5570 5570 5571 5575
5622 5619 5616 5612 5609 5606 5604 5601 5598 5596 5593 5591 5589 5587 5584 5582 5580 5578 5575 5573 5571 5569 5568 5567 5568 5568 5566 5565 5565 5564 5564 5563 5562 5562 5563 5565 5565 5566 5566 5566 5566 5567 5570
5619 5616 5614 5610 5608 5604 5601 5599 5596 5593 5591 5588 5586 5584 5581 5580 5578 5575 5573 5571 5569 5567 5566 5565 5564 5564 5563 5562 5562 5562 5561 5561 5561 5561 5562 5563 5563 5563 5563 5563 5563 5563 5565
5616 5613 5611 5608 5605 5602 5600 5597 5594 5591 5588 5586 5584 5582 5579 5578 5576 5574 5571 5569 5567 5566 5565 5564 5562 5561 5560 5558 5558 5558 5558 5559 5559 5559 5559 5559 5560 5560 5559 5559 5559 5560 5564
5615 5612 5609 5607 5604 5601 5598 5596 5593 5589 5587 5584 5582 5580 5578 5576 5575 5572 5569 5567 5565 5564 5563 5562 5560 5559 5557 5556 5555 5554 5554 5556 5556 5556 5556 5557 5557 5557 5557 5557 5558 5559 5561
5614 5611 5609 5606 5603 5600 5597 5594 5591 5588 5585 5583 5581 5579 5577 5576 5574 5572 5569 5566 5564 5563 5562 5561 5560 5558 5556 5554 5552 5551 5551 5551 5551 5551 5552 5553 5554 5555 5555 5555 5555 5556 5557
5613 5610 5608 5605 5603 5600 5596 5593 5590 5586 5583 5581 5580 5578 5578 5575 5573 5571 5569 5566 5563 5561 5560 5560 5558 5556 5554 5552 5551 5550 5549 5548 5548 5548 5550 5551 5552 5553 5553 5553 5553 5553 5555
5611 5608 5606 5603 5600 5598 5595 5591 5589 5586 5583 5581 5578 5577 5577 5576 5574 5571 5569 5566 5563 5560 5559 5558 5557 5555 5554 5553 5552 5550 5548 5547 5547 5547 5548 5550 5550 5550 5550 5550 5551 5551 5552
5609 5606 5604 5601 5599 5597 5594 5591 5588 5586 5583 5582 5579 5578 5577 5575 5574 5572 5569 5566 5563 5561 5559 5557 5556 5554 5552 5551 5551 5550 5549 5547 5545 5545 5546 5547 5546 5546 5547 5547 5548 5548 5549
5608 5605 5603 5600 5598 5596 5593 5591 5589 5588 5585 5582 5581 5578 5576 5575 5574 5570 5566 5564 5561 5558 5556 5555 5554 5553 5552 5551 5550 5549 5547 5546 5544 5543 5543 5543 5544 5544 5544 5543 5543 5544 5544
5608 5605 5602 5599 5597 5595 5593 5591 5591 5589 5587 5585 5582 5578 5577 5574 5572 5569 5566 5563 5559 5555 5552 5551 5551 5549 5548 5547 5546 5546 5545 5544 5542 5541 5540 5539 5540 5540 5540 5540 5539 5539 5540
5609 5606 5603 5600 5598 5595 5593 5590 5590 5590 5589 5587 5584 5581 5577 5574 5572 5569 5566 5562 5558 5554 5550 5549 5547 5545 5544 5543 5542 5540 5540 5539 5538 5537 5536 5536 5535 5535 5534 5535 5534 5534 5534
5609 5607 5604 5601 5598 5596 5593 5591 5589 5587 5586 5586 5585 5581 5578 5575 5572 5568 5564 5561 5558 5553 5549 5546 5543 5541 5539 5537 5537 5535 5534 5534 5532 5531 5530 5530 5529 5529 5529 5529 5529 5528 5528
5610 5607 5605 5602 5599 5597 5594 5592 5590 5588 5585 5584 5583 5581 5578 5574 5571 5566 5562 5557 5555 5551 5547 5543 5540 5537 5534 5532 5530 5528 5527 5526 5525 5524 5523 5522 5521 5521 5521 5522 5523 5522 5521
5610 5608 5606 5603 5600 5598 5595 5593 5591 5588 5586 5583 5581 5579 5575 5572 5568 5564 5559 5555 5551 5547 5543 5539 5536 5532 5528 5525 5523 5521 5519 5518 5516 5515 5514 5513 5512 5512 5513 5514 5514 5515 5515
5611 5609 5606 5604 5601 5599 5596 5593 5591 5588 5586 5583 5580 5578 5572 5569 5565 5561 5557 5552 5548 5544 5540 5535 5531 5527 5523 5520 5517 5514 5512 5510 5507 5506 5505 5504 5504 5504 5504 5504 5505 5506 5506
5612 5609 5607 5604 5602 5599 5597 5594 5591 5588 5585 5582 5579 5576 5571 5567 5563 5559 5554 5550 5545 5541 5536 5531 5527 5522 5517 5513 5510 5507 5504 5502 5499 5497 5496 5496 5496 5495 5495 5496 5496 5497 5497
5613 5610 5607 5604 5602 5599 5597 5594 5591 5588 5585 5582 5578 5574 5570 5565 5561 5556 5551 5546 5541 5536 5531 5526 5522 5517 5512 5507 5503 5499 5496 5493 5491 5489 5488 5488 5487 5487 5487 5487 5488 5488 5488
5614 5611 5608 5605 5602 5600 5597 5594 5591 5588 5585 5581 5577 5573 5568 5563 5558 5553 5548 5542 5537 5532 5527 5521 5516 5511 5506 5501 5497 5493 5489 5486 5483 5482 5480 5479 5479 5478 5478 5478 5479 5479 5478
5615 5612 5609 5606 5603 5600 5598 5595 5591 5588 5584 5580 5576 5571 5566 5560 5555 5550 5544 5538 5533 5527 5522 5516 5511 5505 5500 5495 5491 5486 5482 5479 5476 5474 5473 5472 5471 5471 5470 5470 5469 5469 5469
5616 5613 5611 5608 5605 5601 5598 5595 5591 5587 5583 5579 5574 5569 5563 5557 5552 5546 5540 5534 5529 5523 5517 5511 5505 5500 5494 5490 5485 5480 5477 5473 5471 5468 5466 5465 5464 5463 5462 5461 5461 5461 5460